Home   Weather   Niamey   Past weeks

Flag for Niger Past Weather in Niamey, Niger — Yesterday and Last 2 Weeks

Now
82 °F

Clear.


Feels Like: 86 °F
Forecast: 79 / 97 °F
Wind: 3 mph from South

Location: Niamey-Aero

Current Time: Sep 26, 2016 at 8:12:07 PM

Latest Report: Sep 26, 2016 at 7:00 PM


Visibility: 10 mi

Pressure: 29.89 "Hg

Humidity: 66%

Dew Point: 70 °F

Location of NiameyLocation

Past Weather in Niamey — Graph

°F

Niamey Temperature Yesterday

Maximum temperature yesterday: 95 °F (at 2:00 PM)
Minimum temperature yesterday: 81 °F (at 6:00 AM)
Average temperature yesterday: 87 °F

High & Low Weather Summary for the Past Weeks

 TemperatureHumidityPressure
High100 °F (Sep 17, 5:00 PM)100% (Sep 13, 2:00 AM)30.01 "Hg (Sep 13, 2:00 AM)
Low72 °F (Sep 13, 2:00 AM)29% (Sep 18, 2:00 PM)29.77 "Hg (Sep 12, 4:00 PM)
Average85 °F64%29.89 "Hg
* Reported Sep 11 7:00 PM — Sep 26 7:00 PM, Niamey, Weather by CustomWeather, © 2016

Note: Actual official high and low records may vary slightly from our data, if they occured in-between our weather recording intervals... More about our weather records

Advertising

Niamey Weather History for the Previous 24 Hours

Scroll right to see more
 ConditionsComfort  
Time TempWeatherWind HumidityBarometerVisibility
7:00 PM
Mon, Sep 26
82 °FClear.3 mph66%29.89 "Hg10 mi
6:00 PM84 °FPassing clouds.7 mph58%29.86 "HgN/A
5:00 PM86 °FPassing clouds.7 mph52%29.86 "HgN/A
4:00 PM88 °FPassing clouds.6 mph49%29.86 "HgN/A
3:00 PM88 °FPassing clouds.6 mph46%29.86 "HgN/A
2:00 PM86 °FPassing clouds.7 mph55%29.89 "HgN/A
1:00 PM84 °FPassing clouds.6 mph62%29.89 "HgN/A
12:00 PM82 °FPassing clouds.7 mph66%29.92 "HgN/A
11:00 AM79 °FSunny.9 mph74%29.95 "Hg10 mi
10:00 AM77 °FPassing clouds.7 mph79%29.98 "HgN/A
9:00 AM75 °FSunny.13 mph89%29.95 "Hg10 mi
8:00 AM75 °FSunny.13 mph89%29.92 "Hg10 mi
7:00 AM75 °FSunny.9 mph94%29.89 "Hg10 mi
6:00 AM75 °FThunderstorms. Passing clouds.7 mph89%29.92 "HgN/A
5:00 AM75 °FThunderstorms. Passing clouds.3 mph89%29.95 "HgN/A
4:00 AM75 °FThunderstorms. Passing clouds.2 mph83%29.95 "HgN/A
3:00 AM75 °FPassing clouds.9 mph89%29.95 "HgN/A
2:00 AM77 °FPassing clouds.8 mph79%29.92 "HgN/A
1:00 AM73 °FThunderstorms. Passing clouds.10 mph100%29.92 "HgN/A
12:00 AM73 °FStrong thunderstorms. Passing clouds.35 mph94%29.95 "Hg1 mi
11:00 PM
Sun, Sep 25
86 °FPassing clouds.5 mph66%29.89 "HgN/A
10:00 PM86 °FPassing clouds.5 mph66%29.89 "HgN/A
9:00 PM88 °FClear.5 mph59%29.83 "Hg10 mi
8:00 PM88 °FPassing clouds.5 mph59%29.80 "HgN/A
Weather by CustomWeather, © 2016

See weather overviewHow to use our weather pages